パンスターズ彗星

C/2017 Y2 ( PanSTARRS )

English version
Home page
Updated on August 6, 2019

---------------------------------------------------------------------

・ プロフィール

発見日 2017年12月24日
発見光度 22.1等
発見者 Pan-STARRS 1 telescope (Haleakala)

・ 写真集

・ 軌道要素

Id. R. J. Bouma (2019 observations)
Epoch 2020 Nov. 7.0 TT = JDT 2459160.5                                          
T 2020 Nov. 4.69386 TT                                  MPCLINUX                
q   4.6323098            (2000.0)            P               Q                  
z  -0.0001427      Peri.  147.87225     -0.04269842     -0.69706766             
 +/-0.0002447      Node    65.99186     -0.99886526     +0.01465748             
e   1.0006609      Incl.  128.41630     +0.02109608     -0.71685552             
From 100 observations 2017 Dec. 24-2019 July 3, mean residual 0".5.             

・ 星図

・ 光度変化

        m1 = 5.5 + 5 logΔ + 12.0 log r

---------------------------------------------------------------------

軌道要素はM.P.E.C. 2019-N40に掲載されたものです。
光度グラフはComet for Windowsで作成したものです。

---------------------------------------------------------------------

Copyright(C) Seiichi Yoshida (comet@aerith.net). All rights reserved.